STARLINK-5996, 57227

Orbit data source: Space-Track

STARLINK-5996, 57227 is a payload satellite owned by SpaceX/Seattle (US) in LEO that was launched on Fri, 07 Jul 2023 UTC via an FALCON 9 launch vehicle from the Air Force Western Test Range (AFWTR). Payload-class satellites include a variety of spacecraft equipped with specific instruments for various scientific and technological missions. These include communications satellites like Starlink; space stations such as the ISS; scientific satellites like the Hubble; Earth observation satellites from companies like Planet Labs, Umbra, and HawkEye 360; GPS; miniature CubeSats for education and research; and military/defense satellites.

Loading next visibility...
Identifier
57227, 2023-094K
Orbit
LEO
Country
Flag of USUS
Related business
Manufacturer
SpaceX/Seattle
Mission
Operational Commercial Communications
Bus & Motor
STARLINK, Unknown motor
Mass
305 kg wet, ~290 kg dry
Launch date (UTC)
2023-07-07 (3 years ago)
Launch vehicle
FALCON 9
Launch site
Air Force Western Test Range (AFWTR)
Object type
Payload
Rocket body
Debris
Shape & HBR
Box + 1 Pan, 10.1 m
Radar Cross Section
11.087 m², Large (>1 m²)

Expand to show TLE details & history
Last TLE update: 8 hours ago

TLE from 8 hours ago
0 STARLINK-5996
1 57227U 23094K   26167.79007233  .00001324  00000-0  57645-4 0  9995
2 57227  43.0007 194.2841 0001594 287.2302  72.8375 15.27581119162237
Epoch: 2026-06-16T18:57Z
TLE epoch observation values (Epoch: 2026-06-16T18:57:42.249Z)
Latitude
-0.00002°
Longitude
4.80099°
Altitude
482.499 km
Speed
7.626 km/s
True Right ascension
12h 57m 08s
True Declination
0° 00' 00"
Sunlit
Object was in daylight at epoch
Visualization orbit readout
Latitude
Unknown
Longitude
Unknown
Altitude
Unknown
Speed
Unknown
Apparent Right ascension
Unknown
Apparent Declination
Unknown
Sunlit
N/A
Visualization observer readout
Local Sidereal Time
13:18:53
Azimuth
Unknown
Elevation
Unknown
Doppler factor
Unknown
Orbital elements
Apogee altitude
486.085 km
Perigee altitude
483.897 km
Semi-major axis
6,863.128 km
Eccentricity
0.00016
Inclination
43.0007°
RAAN
194.2841°
Arg. of periapsis
287.2302°
True anomaly
72.85495°
Mean anomaly
72.8375°
Eccentric anomaly
72.84623°
Mean motion
3.81733 °/min
Orbital period
94.31 mins
BSTAR
0.000057645
Loading maneuver chart data...
Computing Atmospheric mass density...
Loading historical data...
Loading historical data...
Loading historical data...
Loading historical data...
Loading historical data...
Loading historical data...
Loading historical data...

Documentation

Showing up to 5 results
|